www.pogodaiklimat.ru

Погода и климат >> Архив погоды >> Мальдивы >> Каадедхдху


ПОГОДА на Каадедхдху

  • Прогноз погоды на Каадедхдху
  • Монитор погоды на Каадедхдху

АРХИВ ПОГОДЫ на Каадедхдху

Время (UTC), дата Ветер
(напр.,м/с)
 
Видим.   Явления Облачность Т
(С)
Тd
(С)
f
(%)
Тe
(С)
Тes
(С)
Комфортность P
(гПа)
Po
(гПа)
Тmin
(С)
Tmax
(С)
R
(мм)
R24
(мм)
S
(см)
15 14.07 Ю 1 12 км 5/3 540 м
[Cu med, cong Ci sp]
+28.4 +25.6 85 +42 +42 опасность
перегрева
1011.4 1011.3
18 14.07 нст 1 15 км зарница 5/3 540 м
[Cb cap Ci sp]
+28.0 +25.2 85 +41 +41 опасность
перегрева
1012.2 1012.1
21 14.07 С 4 6000 м слаб. ливневой дождь 9/6 480 м
[Cb cap]
+24.8 +23.9 95 +34 +34 очень
душно
1011.2 1011.1
00 15.07 штиль 0 15 км {ливн. осадки} 5/3 540 м
[Cu med, cong Ac trans Ci sp]
+24.0 +24.0 100 +33 +33 очень
душно
1009.7 1009.6 6
03 15.07 нст 1 15 км 8/3 540 м
[Cu med, cong Ci fib]
+28.6 +25.2 82 +42 +45 опасность
перегрева
1011.5 1011.4 +23.4
06 15.07 СЗ 3 15 км 5/3 540 м
[Cu med, cong Ci fib]
+30.8 +24.8 70 +44 +53 опасность
перегрева
1012.2 1012.1
09 15.07 З 2 15 км 5/4 540 м
[Cb cap Ci fib]
+31.0 +25.1 71 +45 +54 опасность
перегрева
1010.0 1009.9
12 15.07 З 4 12 км в посл. час ливневой дождь 6/4 500 м
[Cb cap Ac trans Ci sp]
+28.4 +24.8 81 +41 +41 опасность
перегрева
1010.0 1009.9 +31.4 9
15 15.07 С 2 9000 м в посл. час ливневой дождь 9/5 500 м
[Cb cap Ac trans]
+26.6 +24.3 87 +37 +37 очень
душно
1011.7 1011.6
18 15.07 З 4 7000 м слаб. дождь 10/6 480 м
[Cb cap As op]
+25.2 +25.2 100 +36 +36 очень
душно
1012.7 1012.6 20
21 15.07 З 5 7000 м слаб. дождь 10/6 480 м
[Cb cap As op]
+23.5 +22.8 96 +31 +31 очень
душно
1011.4 1011.3
00 16.07 З 6 9000 м в посл. час дождь {ливн. осадки} 9/4 500 м
[Cb cap As op]
+25.8 +21.6 78 +33 +33 очень
душно
1009.8 1009.7 46
03 16.07 З 2 9000 м слаб. дождь 10/4 480 м
[Cb cap As op]
+27.2 +23.1 78 +36 +37 очень
душно
1012.3 1012.2 +22.4
06 16.07 З 2 9000 м слаб. дождь 10/3 500 м
[Cu med, cong As op]
+28.0 +24.9 83 +40 +43 очень
душно
1012.5 1012.4 0.1
09 16.07 З 1 10 км {дождь} 10/5 500 м
[Cb cap As op]
+29.6 +25.5 79 +44 +45 опасность
перегрева
1010.8 1010.7
12 16.07 С 2 10 км {ливн. осадки} 9/4 500 м
[Cb cap Ac trans]
+28.0 +24.0 79 +39 +39 очень
душно
1010.1 1010.0 +30.0 0.1
15 16.07 ЮЗ 2 10 км 9/3 500 м
[Cu med, cong Ac As]
+28.0 +23.5 77 +38 +38 очень
душно
1011.5 1011.4
18 16.07 Ю 4 10 км 9/3 540 м
[Cu med, cong Ac As Cs]
+27.8 +24.6 83 +39 +39 очень
душно
1011.8 1011.7
21 16.07 Ю 3 12 км 9/3 540 м
[Cu med, cong Ac trans Cs]
+27.7 +23.8 79 +38 +38 очень
душно
1010.2 1010.1
00 17.07 Ю 6 12 км 9/3 540 м
[Cu med, cong Ac As]
+28.2 +23.1 74 +38 +38 очень
душно
1009.8 1009.7
03 17.07 Ю 4 12 км {ливн. осадки} 9/3 540 м
[Cb cap Ac trans Cs]
+28.4 +24.8 81 +41 +42 опасность
перегрева
1011.3 1011.2 +25.3
06 17.07 Ю 5 12 км {ливн. осадки} 9/3 500 м
[Cb cap Ac trans Cs]
+29.6 +25.1 77 +43 +46 опасность
перегрева
1011.5 1011.4 0.2
09 17.07 Ю 3 12 км 9/3 500 м
[Cb cap Ac trans Cs]
+29.6 +24.4 74 +42 +47 опасность
перегрева
1008.9 1008.8
12 17.07 Ю 5 10 км слаб. ливневой дождь 9/4 540 м
[Cb cap Ac trans Ci sp]
+29.4 +24.5 75 +42 +42 опасность
перегрева
1008.5 1008.4 +30.4 0.2
15 17.07 Ю 1 10 км {ливн. осадки} 9/3 540 м
[Cu med, cong Ac trans Ci sp]
+27.8 +24.3 81 +39 +39 очень
душно
1010.2 1010.1
18 17.07 Ю 3 10 км {ливн. осадки} 9/3 540 м
[Cu med, cong Ac As Ci sp]
+27.6 +24.6 84 +39 +39 очень
душно
1011.0 1010.9 0.0
21 17.07 З 3 9000 м гроза без осадков {ливн. осадки} 9/6 480 м
[Cb cap Ac As]
+26.8 +24.5 87 +38 +38 очень
душно
1009.6 1009.5
00 18.07 штиль 0 9000 м в посл. час ливневой дождь {гроза} 9/5 500 м
[Cb cap As op]
+25.2 +24.9 98 +36 +36 очень
душно
1008.4 1008.3 6
03 18.07 Ю 2 4000 м слаб. ливневой дождь 9/4 480 м
[Cb cap As op]
+25.0 +23.2 90 +33 +34 очень
душно
1010.2 1010.1 +24.1
06 18.07 штиль 0 4000 м слаб. дождь 10/4 480 м
[Cb cap As op]
+24.5 +23.8 96 +33 +36 очень
душно
1011.1 1011.0 16
09 18.07 СЗ 4 10 км {дождь} 10/5 500 м
[Cb cap Ac As]
+27.0 +24.4 86 +38 +39 очень
душно
1009.3 1009.2
12 18.07 З 3 10 км {ливн. осадки, дождь} 9/4 500 м
[Cb cap Ac trans]
+27.0 +24.4 86 +38 +38 очень
душно
1008.3 1008.2 +29.8 17
15 18.07 З 2 10 км {дождь} 9/5 500 м
[Cb cap Ac As]
+27.8 +24.3 81 +39 +39 очень
душно
1010.0 1009.9
18 18.07 ЮЗ 4 10 км {ливн. осадки, дождь} 9/5 540 м
[Cb cap Ac As]
+27.4 +23.9 81 +38 +38 очень
душно
1010.9 1010.8 0.0
21 18.07 З 3 10 км 9/4 500 м
[Cu med, cong Ac As]
+27.8 +23.7 78 +38 +38 очень
душно
1009.1 1009.0
00 19.07 З 4 9000 м слаб. ливневой дождь 9/3 500 м
[Cb cap Ac trans]
+27.5 +24.2 82 +38 +38 очень
душно
1008.6 1008.5 0.0
03 19.07 З 2 9000 м слаб. дождь 9/3 500 м
[Cb cap As op]
+28.1 +24.1 79 +39 +40 очень
душно
1009.4 1009.3 +23.2
06 19.07 З 5 9000 м {дождь} 9/3 500 м
[Cu med, cong Ac As]
+29.2 +24.6 76 +41 +44 опасность
перегрева
1008.9 1008.8 0.0
09 19.07 З 3 10 км 9/4 540 м
[Cu med, cong Ac trans Cs]
+30.0 +24.7 73 +43 +47 опасность
перегрева
1007.3 1007.2
12 19.07 З 5 10 км 9/4 540 м
[Cb cap Ac trans Cs]
+29.6 +24.8 75 +42 +42 опасность
перегрева
1007.0 1006.9 +30.6 0.0
15 19.07 З 2 10 км 9/5 540 м
[Cb cap Ac trans Cs]
+28.8 +25.1 80 +42 +42 опасность
перегрева
1008.9 1008.8
18 19.07 З 4 12 км 5/5 540 м
[Cb cap Ac trans Ci sp]
+28.6 +24.9 80 +41 +41 опасность
перегрева
1009.1 1009.0
21 19.07 З 3 8000 м слаб. ливневой дождь 9/5 500 м
[Cb cap Ac trans Ci sp]
+28.3 +24.9 82 +41 +41 опасность
перегрева
1008.2 1008.1
00 20.07 ЮЗ 5 9000 м в посл. час ливневой дождь 9/5 500 м
[Cb cap As op]
+27.4 +24.5 84 +39 +39 очень
душно
1007.5 1007.4 1
03 20.07 ЮЗ 3 10 км в посл. час ливневой дождь 9/4 500 м
[Cb cap Ac trans Ci sp]
+27.8 +24.9 84 +40 +41 очень
душно
1008.8 1008.7 +25.5
06 20.07 ЮЗ 6 12 км 9/4 540 м
[Cu med, cong Ac trans Cs]
+30.2 +25.1 74 +44 +46 опасность
перегрева
1009.0 1008.9 9
09 20.07 З 2 12 км 9/4 540 м
[Cb cap Ac trans Ci sp]
+29.6 +24.8 75 +42 +47 опасность
перегрева
1007.3 1007.2
12 20.07 З 4 12 км 9/3 540 м
[Cu med, cong Ac trans Cs]
+29.5 +25.2 78 +43 +43 опасность
перегрева
1006.6 1006.5 +30.6 9
18 20.07 З 5 12 км 9/3 540 м
[Cu med, cong Ac trans Cs]
+28.4 +24.4 79 +40 +40 очень
душно
1009.7 1009.6
21 20.07 З 3 12 км 9/3 540 м
[Cu med, cong Ac trans Cs]
+28.4 +24.2 78 +40 +40 очень
душно
1007.6 1007.5
00 21.07 З 5 12 км 8/4 540 м
[Cb cap Ac trans Ci sp]
+28.4 +25.0 82 +41 +41 опасность
перегрева
1006.3 1006.2
03 21.07 З 2 12 км 8/3 540 м
[Cu med, cong Ci sp]
+29.4 +25.1 78 +43 +45 опасность
перегрева
1007.8 1007.7 +27.0
06 21.07 З 4 12 км 9/4 540 м
[Cu med, cong Ac trans Cs]
+30.4 +25.6 76 +45 +49 опасность
перегрева
1008.3 1008.2
09 21.07 З 3 12 км 9/3 540 м
[Cb cap Ac trans Cs]
+30.4 +25.3 74 +44 +50 опасность
перегрева
1006.6 1006.5
12 21.07 З 4 12 км 9/3 540 м
[Cb cap Ac trans Cs]
+29.6 +24.4 74 +42 +42 опасность
перегрева
1006.0 1005.9 +31.0

 

Местоположение метеостанции Каадедхдху (Мальдивы): широта 0.48 долгота 72.98 высота над уровнем моря 2 м.

В архиве по умолчанию представлена погода на Каадедхдху за последнюю неделю. Архивные данные за месяц целиком и за предыдущие месяцы, начиная с января 2011 года, Вы можете получить, выбрав интересующий диапазон дат из раскрывающегося списка и нажав кнопку "Ввод!".


*Определитесь, кто Вы:
робот инопланетянин человек

Внимание! Время в таблицах - всемирное. Для получения местного времени необходимо прибавить поправку, которая равна 5 ч.

Смотрите также архив погоды в соседних городах и на ближайших метеорологических станциях:

Погода в Гане (Мальдивы) (130 км)
Погода на Кадхдху (Мальдивы) (166 км)
Погода в Мале (Мальдивы) (418 км)
Погода на Ханимааду (Мальдивы) (695 км)
Погода на Миникое (Лакшадвип, Индия) (870 км)
Погода в Каньякумари (Тамилнад, Индия) (983 км)
Погода в Тривандрам аэропорту (Керала, Индия) (992 км)
Погода в Тривандраме (Керала, Индия) (993 км)
Погода в Галле (Шри Ланка) (1013 км)
Погода в Ратмалане (Шри Ланка) (1041 км)

Пояснения к столбцам:

Ветер - указаны скорость ветра в м/с - средняя за 10 мин, порывы в срок и между сроками (в фигурных скобках) и направление, откуда дует ветер: С - северный, СВ - северо-восточный, В - восточный, ЮВ - юго-восточный, Ю - южный, ЮЗ - юго-западный, З - западный, СЗ - северо-западный.
Видимость - горизонтальная дальность видимости в метрах или километрах. При видимости от 1 до 10 км при отсутствии осадков обычно наблюдается дымка, при ухудшении видимости до 1 км и менее - туман. В сухую погоду видимость может ухудшаться дымом, пылью или мглою.
Явления - указаны атмосферные явления, наблюдавшиеся в срок или в последний час перед сроком; фигурными скобками обозначены явления, наблюдавшиеся между сроками (за 1-3 часа до срока); квадратными скобками обозначены град или гололедные отложения с указанием их диаметра в мм.
Облачность - указаны через наклонную черту общая и нижняя облачность в баллах и высота нижней границы облаков в метрах; квадратными скобками обозначены формы облаков: Ci - перистые, Cs - перисто-слоистые, Cc - перисто-кучевые, Ac - высококучевые, As - высокослоистые, Sc - слоисто-кучевые, Ns - слоисто-дождевые, Cu - кучевые, Cb - кучево-дождевые. Подробнее классификацию облаков см. в Атласе облаков (PDF).
T - Температура воздуха - температура, измеренная на высоте 2 м над землей.
Td - Температура точки росы - температура, при понижении до которой содержащийся в воздухе водяной пар достигнет насыщения.
f - Относительная влажность воздуха - влажноcть воздуха, измеренная на высоте 2 м над землей.
Te - Эффективная температура - температура, которую ощущает одетый по сезону человек в тени. Характеристика душности погоды. При расчете учитывается влияние влажности воздуха и скорости ветра на теплоощущения человека.
Tes - Эффективная температура на солнце - температура, которую ощущает человек, с поправкой на солнечный нагрев. Характеристика знойности погоды. Зависит от высоты солнца над горизонтом, облачности и скорости ветра. Ночью, в пасмурную погоду, а также при ветре 12 м/с и более поправка равна нулю.
P - Атмосферное давление - приведенное к уровню моря атмосферное давление.
Po - Атмосферное давление - измеренное на уровне метеостанции атмосферное давление.
Tmin - Минимальная температура - минимум температуры воздуха на высоте 2 м над землей.
Tmax - Максимальная температура - максимум температуры воздуха на высоте 2 м над землей.
R - Количество осадков - Количество выпавших осадков за период времени, мм. При наведении курсора мыши на число - период времени, за который выпало указанное количество осадков.
R24 - Количество осадков - Количество выпавших осадков за 24 часа, мм.
S - Снежный покров - Высота снежного покрова, см. При наведении курсора мыши на число - состояние снежного покрова и степень покрытия местности в баллах.